Location: Le Petit-Vavre
(46.5081°N, 1.5239°E)
Time: 18:24:32
(UTC+00:00)

Cosmos 1980 Rocket - Pass Details

Date: 03 March 2021
Orbit: 828 x 851 km, 71.0° (Epoch: 15 April)

Event Time Altitude Azimuth Distance (km) Brightness Sun altitude
Rises 18:53:09 0° 247° (WSW) 3,393 6.6 -12.9°
Reaches altitude 10° 18:56:04 10° 261° (W) 2,466 6.0 -13.4°
Maximum altitude 19:00:33 24° 314° (NW) 1,710 4.4 -14.1°
Drops below altitude 10° 19:05:05 10° 7° (N) 2,485 4.6 -14.9°
Sets 19:08:04 0° 21° (NNE) 3,427 5.2 -15.4°
